DW1289 Weather Reports


time (UTC)temp
C
wind
direction
speed
KPH
gust
KPH
rain 1hr
cm
rain 24hr
cm
rain mn
cm
humidity
%
barometer
mb
20260902165036 36 248 6.4 12.9 0.00 0.00 0.00 52 1019.0
20260902164016 36 248 3.2 11.3 0.00 0.00 0.00 51 1019.1
20260902163016 35 248 4.8 12.9 0.00 0.00 0.00 55 1019.1
20260902162016 35 248 6.4 12.9 0.00 0.00 0.00 55 1019.1
20260902161016 35 248 6.4 14.5 0.00 0.00 0.00 56 1019.1
20260902160016 35 248 4.8 11.3 0.00 0.00 0.00 54 1019.2
20260902155016 34 248 4.8 12.9 0.00 0.00 0.00 56 1019.3
20260902154016 34 248 4.8 16.1 0.00 0.00 0.00 60 1019.3
20260902153016 33 248 4.8 14.5 0.00 0.00 0.00 60 1019.4
20260902152056 33 248 4.8 11.3 0.00 0.00 0.00 61 1019.3
20260902151016 33 248 4.8 12.9 0.00 0.00 0.00 63 1019.3
20260902150016 32 248 3.2 12.9 0.00 0.00 0.00 65 1019.3
20260902145016 32 225 1.6 8.0 0.00 0.00 0.00 68 1019.4
20260902144016 31 0.0 0.0 0.00 0.00 0.00 71 1019.5
20260902143016 31 0.0 0.0 0.00 0.00 0.00 72 1019.3
20260902142036 30 0.0 0.0 0.00 0.00 0.00 75 1019.3
20260902141016 29 0.0 0.0 0.00 0.00 0.00 76 1019.4
20260902140016 28 0.0 0.0 0.00 0.00 0.00 78 1019.4
20260902135016 28 0.0 0.0 0.00 0.00 0.00 80 1019.3
20260902134016 27 0.0 0.0 0.00 0.00 0.00 83 1019.4
20260902133016 26 0.0 0.0 0.00 0.00 0.00 87 1019.4
20260902132016 25 0.0 0.0 0.00 0.00 0.00 89 1019.3
20260902131016 25 0.0 0.0 0.00 0.00 0.00 92 1019.3
20260902130016 24 0.0 0.0 0.00 0.00 0.00 93 1019.3
20260902125016 23 0.0 0.0 0.00 0.00 0.00 93 1019.3
20260902124016 23 0.0 0.0 0.00 0.00 0.00 93 1019.2
20260902123036 23 0.0 0.0 0.00 0.00 0.00 93 1019.2
20260902122036 23 0.0 0.0 0.00 0.00 0.00 93 1019.1
20260902121016 23 0.0 0.0 0.00 0.00 0.00 93 1018.9
20260902120036 23 0.0 0.0 0.00 0.00 0.00 93 1019.0
20260902115016 23 0.0 0.0 0.00 0.00 0.00 93 1019.0
20260902114016 22 0.0 0.0 0.00 0.00 0.00 93 1018.7
20260902113016 22 0.0 0.0 0.00 0.00 0.00 93 1018.7
20260902112016 22 0.0 0.0 0.00 0.00 0.00 93 1018.6
20260902111016 22 0.0 0.0 0.00 0.00 0.00 93 1018.6
20260902110016 22 0.0 0.0 0.00 0.00 0.00 93 1018.6
20260902105016 22 0.0 0.0 0.00 0.00 0.00 92 1018.5
20260902104016 22 0.0 0.0 0.00 0.00 0.00 92 1018.4
20260902103016 22 0.0 0.0 0.00 0.00 0.00 92 1018.3
20260902102016 23 0.0 0.0 0.00 0.00 0.00 92 1018.2
20260902101016 23 0.0 0.0 0.00 0.00 0.00 92 1018.1
20260902100056 23 0.0 0.0 0.00 0.00 0.00 92 1018.1
20260902095016 23 0.0 0.0 0.00 0.00 0.00 92 1018.1
20260902094016 23 0.0 0.0 0.00 0.00 0.00 92 1018.1
20260902093036 23 0.0 0.0 0.00 0.00 0.00 92 1017.9
20260902092016 23 0.0 0.0 0.00 0.00 0.00 92 1017.9
20260902091016 23 0.0 0.0 0.00 0.00 0.00 92 1017.6
20260902090016 23 0.0 0.0 0.00 0.00 0.00 92 1017.6
20260902085016 23 0.0 0.0 0.00 0.00 0.00 92 1017.6
20260902084016 23 0.0 0.0 0.00 0.00 0.00 91 1017.6
20260902083016 23 0.0 0.0 0.00 0.00 0.00 91 1017.7
20260902082016 23 0.0 0.0 0.00 0.00 0.00 91 1017.8
20260902081016 23 0.0 0.0 0.00 0.00 0.00 91 1017.6
20260902080016 23 0.0 0.0 0.00 0.00 0.00 91 1017.6
20260902075016 23 0.0 0.0 0.00 0.00 0.00 91 1017.5
20260902074016 23 0.0 0.0 0.00 0.00 0.00 90 1017.5
20260902073016 23 0.0 0.0 0.00 0.00 0.00 90 1017.4
20260902072016 23 0.0 0.0 0.00 0.00 0.00 90 1017.5
20260902071016 24 0.0 0.0 0.00 0.00 0.00 90 1017.5
20260902070016 24 0.0 0.0 0.00 0.00 0.00 89 1017.5
20260902065016 24 0.0 0.0 0.00 0.00 0.00 89 1017.5
20260902064016 24 0.0 0.0 0.00 0.00 0.00 89 1017.5
20260902063016 24 0.0 0.0 0.00 0.00 0.00 88 1017.6
20260902062016 24 0.0 0.0 0.00 0.00 0.00 88 1017.5
20260902061016 24 0.0 0.0 0.00 0.00 0.00 88 1017.5
20260902060016 24 0.0 0.0 0.00 0.00 0.00 87 1017.7
20260902055016 25 0.0 0.0 0.00 0.00 0.00 87 1017.7
20260902054036 25 0.0 0.0 0.00 0.00 0.00 87 1017.7
20260902053016 25 0.0 0.0 0.00 0.00 0.00 86 1017.6
20260902052016 25 0.0 0.0 0.00 0.00 0.00 86 1017.6
20260902051016 25 0.0 0.0 0.00 0.00 0.00 85 1017.6
20260902050016 25 0.0 0.0 0.00 0.00 0.00 85 1017.6
20260902045016 25 0.0 0.0 0.00 0.00 0.00 84 1017.5
20260902044016 25 0.0 0.0 0.00 0.00 0.00 84 1017.6
20260902043016 25 0.0 0.0 0.00 0.00 0.00 85 1017.6
20260902042016 26 0.0 0.0 0.00 0.00 0.00 85 1017.6
20260902041016 26 0.0 0.0 0.00 0.00 0.00 85 1017.6
20260902040016 26 0.0 0.0 0.00 0.00 0.00 85 1017.5
20260902035037 26 0.0 0.0 0.00 0.00 0.00 84 1017.4
20260902034016 26 0.0 0.0 0.00 0.00 0.00 83 1017.5
20260902033017 26 0.0 0.0 0.00 0.00 0.00 82 1017.5
20260902032036 26 0.0 0.0 0.00 0.00 0.00 82 1017.6
20260902031016 26 0.0 0.0 0.00 0.00 0.00 81 1017.6
20260902030056 26 0.0 0.0 0.00 0.00 0.00 81 1017.5
20260902025016 26 0.0 0.0 0.00 0.00 0.00 80 1017.4
20260902024016 26 0.0 0.0 0.00 0.00 0.00 79 1017.4
20260902023016 27 0.0 0.0 0.00 0.00 0.00 79 1017.3
20260902022016 27 0.0 0.0 0.00 0.00 0.00 79 1017.3
20260902021036 27 0.0 0.0 0.00 0.00 0.00 79 1017.3
20260902020016 27 0.0 0.0 0.00 0.00 0.00 79 1017.3
20260902015016 27 0.0 0.0 0.00 0.00 0.00 80 1017.3
20260902014016 27 0.0 0.0 0.00 0.00 0.00 80 1017.3
20260902013016 27 0.0 0.0 0.00 0.00 0.00 80 1017.1
20260902012016 27 0.0 0.0 0.00 0.00 0.00 78 1017.0
20260902011016 28 0.0 0.0 0.00 0.00 0.00 77 1016.9
20260902010016 28 0.0 0.0 0.00 0.00 0.00 76 1016.8
20260902005016 28 0.0 0.0 0.00 0.00 0.00 74 1016.7
20260902004016 29 0.0 0.0 0.00 0.00 0.00 74 1016.6
20260902003016 30 0.0 0.0 0.00 0.00 0.00 72 1016.5
20260902002016 30 0.0 0.0 0.00 0.00 0.00 70 1016.5
20260902001016 31 0.0 0.0 0.00 0.00 0.00 67 1016.6
20260902000016 31 0.0 0.0 0.00 0.00 0.00 64 1016.7
20260901235016 32 0.0 0.0 0.00 0.00 0.00 60 1016.7
20260901234016 32 0.0 1.6 0.00 0.00 0.00 57 1016.8
20260901233016 33 225 1.6 4.8 0.00 0.00 0.00 55 1016.9
20260901232016 33 0.0 4.8 0.00 0.00 0.00 55 1017.0
20260901231016 33 270 1.6 4.8 0.00 0.00 0.00 53 1017.0
20260901230016 33 248 1.6 4.8 0.00 0.00 0.00 52 1017.0
20260901225016 34 270 1.6 6.4 0.00 0.00 0.00 52 1017.0
20260901224016 34 248 3.2 6.4 0.00 0.00 0.00 51 1017.0
20260901223016 34 248 3.2 11.3 0.00 0.00 0.00 49 1017.0
20260901222016 34 248 4.8 9.7 0.00 0.00 0.00 48 1016.9
20260901221016 35 248 3.2 8.0 0.00 0.00 0.00 49 1016.9
20260901220016 35 248 4.8 12.9 0.00 0.00 0.00 49 1016.9
20260901215016 35 248 3.2 9.7 0.00 0.00 0.00 48 1016.8
20260901214056 35 248 4.8 14.5 0.00 0.00 0.00 47 1016.8
20260901213036 35 248 3.2 12.9 0.00 0.00 0.00 48 1016.8
20260901212016 35 248 4.8 12.9 0.00 0.00 0.00 48 1017.0
20260901211016 35 248 3.2 9.7 0.00 0.00 0.00 49 1016.9
20260901210016 35 248 4.8 16.1 0.00 0.00 0.00 48 1017.0
20260901205016 35 248 6.4 14.5 0.00 0.00 0.00 47 1017.1
20260901204016 35 248 6.4 14.5 0.00 0.00 0.00 47 1017.2
20260901203016 35 248 3.2 11.3 0.00 0.00 0.00 50 1017.2
20260901202036 36 248 6.4 12.9 0.00 0.00 0.00 48 1017.5
20260901201016 36 248 3.2 11.3 0.00 0.00 0.00 49 1017.5
20260901200016 36 248 6.4 16.1 0.00 0.00 0.00 50 1017.5
20260901195056 35 248 6.4 17.7 0.00 0.00 0.00 50 1017.6
20260901194016 35 248 6.4 16.1 0.00 0.00 0.00 50 1017.7
20260901193016 35 248 6.4 12.9 0.00 0.00 0.00 54 1017.7
20260901192016 35 248 6.4 12.9 0.00 0.00 0.00 51 1017.8
20260901191016 35 248 6.4 14.5 0.00 0.00 0.00 48 1018.0
20260901190016 35 248 4.8 14.5 0.00 0.00 0.00 51 1018.0
20260901185016 35 248 4.8 14.5 0.00 0.00 0.00 51 1018.2
20260901184016 35 248 4.8 12.9 0.00 0.00 0.00 52 1018.3
20260901183016 35 270 4.8 20.9 0.00 0.00 0.00 48 1018.5
20260901182016 35 248 6.4 17.7 0.00 0.00 0.00 53 1018.6
20260901181016 35 248 8.0 14.5 0.00 0.00 0.00 51 1018.6
20260901180016 35 248 9.7 19.3 0.00 0.00 0.00 51 1018.7
20260901175016 35 225 4.8 14.5 0.00 0.00 0.00 52 1018.7
20260901174017 35 225 6.4 16.1 0.00 0.00 0.00 55 1018.9
20260901173036 34 248 8.0 19.3 0.00 0.00 0.00 53 1019.0
20260901172016 34 248 4.8 16.1 0.00 0.00 0.00 54 1019.1
20260901171016 35 248 6.4 14.5 0.00 0.00 0.00 58 1019.1
20260901170016 35 248 6.4 14.5 0.00 0.00 0.00 56 1019.2